Terminal Aerodrome Forecast
Issued by NWS Hastings, NE

Home | Current Version | Previous Version | Text Only | Print | Product List | Glossary On
Versions: 1 2 3 4 5 6 7 8 9 10 11 12 13
649
FTUS45 KGID 172031 AAA
TAFEAR
TAF AMD
KEAR 172031Z 1721/1818 35008KT P6SM BKN020
     FM172300 33008KT P6SM SCT020
     FM180300 VRB03KT P6SM SCT200
     FM181100 23007KT P6SM FEW250=

USA.gov is the U.S. government's official web portal to all federal, state and local government web resources and services.